Simultaneous Nadir Overpasses (SNOs) Predictions

Prediction of SNOs between GOES-16 and NOAA-19 Satellite Orbit:

Table of predicted SNOs for the next 14.0 days since TLE Epoch: 2/24/2017
Index Date Time (GOES-16) GOES-16 Lat,Lon NOAA-19 Lat,Lon Distance(km) Time Diff (sec)
1 02/25/2017 21:19:16 0.02, -89.48 -0.92, -93.71 481.99 80
2 02/26/2017 21:07:51 0.02, -89.49 -0.29, -90.93 164.24 80
3 02/27/2017 20:59:05 0.01, -89.49 0.34, -88.15 153.50 80
4 02/28/2017 20:47:40 0.01, -89.49 0.97, -85.37 471.18 80
5 03/02/2017 09:20:43 -0.01, -89.51 0.88, -93.29 432.87 80
6 03/03/2017 09:09:18 -0.01, -89.51 0.23, -90.52 115.18 80
7 03/04/2017 08:55:12 -0.02, -89.51 -0.42, -87.74 202.56 80
8 03/06/2017 21:16:53 0.00, -89.51 -0.80, -92.90 386.89 80
9 03/07/2017 21:05:28 -0.00, -89.52 -0.16, -90.12 68.72 80
10 03/08/2017 20:56:42 -0.01, -89.52 0.48, -87.33 249.51 80




NCC Satellite Simultaneous Nadir Overpasses (SNOs) Prediction Service
